This is the latest recevied weather packets stored in our database for station/object EA3IK-1. If no packets are shown the sender has not sent any weather packets the latest 10 day(s).
| Time | Temp. | Humidity | Pressure | Rain* | Wind** | Luminosity | Snow |
|---|---|---|---|---|---|---|---|
| 1777742857 | 17.78° C | 63% | 1018.7 hPa | 0 mm | - | - | - |
| 1777741956 | 17.78° C | 65% | 1019 hPa | 0 mm | - | - | - |
| 1777741055 | 18.33° C | 66% | 1019.1 hPa | 0 mm | - | - | - |
| 1777740154 | 18.33° C | 68% | 1019.5 hPa | 0 mm | - | - | - |
| 1777739254 | 18.33° C | 69% | 1019.3 hPa | 0 mm | - | - | - |
| 1777738353 | 18.33° C | 68% | 1019.3 hPa | 0 mm | - | - | - |
| 1777737452 | 18.33° C | 68% | 1019.7 hPa | 0 mm | - | - | - |
| 1777736551 | 18.89° C | 67% | 1019.8 hPa | 0 mm | - | - | - |
| 1777735650 | 18.89° C | 68% | 1019.8 hPa | 0 mm | - | - | - |
| 1777734749 | 18.89° C | 68% | 1020 hPa | 0 mm | - | - | - |
| 1777733848 | 18.89° C | 68% | 1019.9 hPa | 0 mm | - | - | - |
| 1777732948 | 19.44° C | 68% | 1020.2 hPa | 0 mm | - | - | - |
| 1777732047 | 19.44° C | 68% | 1020.3 hPa | 0 mm | - | - | - |
| 1777731146 | 19.44° C | 68% | 1020.5 hPa | 0 mm | - | - | - |
| 1777730245 | 18.89° C | 68% | 1020.8 hPa | 0 mm | - | - | - |
| 1777729344 | 19.44° C | 68% | 1021 hPa | 0 mm | - | - | - |
| 1777728443 | 19.44° C | 68% | 1021.2 hPa | 0 mm | - | - | - |
| 1777727542 | 20° C | 67% | 1021.1 hPa | 0 mm | - | - | - |
| 1777726642 | 20° C | 66% | 1021.1 hPa | 0 mm | - | - | - |
| 1777725741 | 20° C | 65% | 1021.1 hPa | 0 mm | - | - | - |
| 1777724840 | 20° C | 66% | 1021.4 hPa | 0 mm | - | - | - |
| 1777723939 | 19.44° C | 67% | 1021.5 hPa | 0 mm | - | - | - |
| 1777723038 | 19.44° C | 67% | 1021.6 hPa | 0 mm | - | - | - |
| 1777722137 | 18.89° C | 67% | 1021.7 hPa | 0 mm | - | - | - |
| 1777721237 | 18.89° C | 68% | 1021.9 hPa | 0 mm | - | - | - |
* Rain latest hour (hover to see other rain measurements)
** Current wind speed in m/s (hover to see current wind gust speed)